Погода в Тулаге

Россия / Нижегородская область     57°35′02″N   45°48′07″E
темп.,
°C
ветер,
м/с
пор.,
м/с
влажн.,
%
обл.,
%
осадки,
мм/ч
давл.,
гПа
погр.,
м
21 апреля, ср
ср2100:00+2вюв51461100 0.0 1024444
03:00+2вюв6166198 0.0 1022544
06:00+3вюв71754100 0.0 1019840
09:00+2юв81984100 0.9 10181016
12:00+3юв8168297 0.3 1017870
15:00+3юв81580100 0.3 1016904
18:00+3юв71485100 0.1 1015824
21:00+3ююв61492100 0.3 1015675
22 апреля, чт
чт2200:00+3ююв61494100 0.5 1014609
03:00+3ююв51196100 2.3 1014801
06:00+4ююз41091100 0.7 1016580
09:00+5ююз4985100 0.7 1018682
12:00+9ююз5864100 0.0 10191405
15:00+6ююз2595100 1.8 1019309
18:00+8ююз378032 0.1 1020549
21:00+4ю24945 0.1 102271
23 апреля, пт
пт2300:00+3ю269399 0.0 1022108
03:00+4ююв3791100 0.0 1022167
06:00+5ю3987100 0.0 1023280
09:00+9ю496885 0.0 1023523
12:00+13ю575779 0.0 1022943
15:00+12юз4770100 0.4 1022737
18:00+11юв377677 0.3 1021245
21:00+7юв3108381 0.3 1021180
24 апреля, сб
сб2400:00+6юв379233 0.0 1020143
03:00+7юв31092100 0.0 1019289
06:00+7юв4108798 0.0 1018328
09:00+11юв68655 0.0 1017875
12:00+13вюв675138 0.0 10151789
15:00+12юв575996 0.0 10131273
18:00+10вюв51075100 0.1 1011677
21:00+7вюв5128651 0.1 1010564
25 апреля, вс
вс2500:00+6вюв5128676 0.0 1007623
03:00+6юв51189100 0.1 1005931
06:00+4юз4894100 2.9 1005760
09:00+6юз587196 3.1 10061247
12:00+6зюз5880100 1.7 10061130
15:00+8зюз686857 2.4 10071508
18:00+6зюз48758 0.4 1008751
21:00+2юз379034 0.5 1010143